"Sample Date","Sample Time","Sample Value","Units","Flow Rate","Sample Interval","Number Channels","Micron Size 0","Counts/Channel 0","Micron Size 1","Counts/Channel 1","Micron Size 2","Counts/Channel 2","Micron Size 3","Counts/Channel 3","Micron Size 4","Counts/Channel 4","Micron Size 5","Counts/Channel 5","Micron Size 6","Counts/Channel 6","Micron Size 7","Counts/Channel 7","Micron Size 8","Counts/Channel 8","Micron Size 9","Counts/Channel 9","Micron Size 10","Counts/Channel 10","Micron Size 11","Counts/Channel 11","Micron Size 12","Counts/Channel 12","Micron Size 13","Counts/Channel 13","Micron Size 14","Counts/Channel 14","Micron Size 15","Counts/Channel 15","Micron Size 16","Counts/Channel 16","Micron Size 17","Counts/Channel 17","Micron Size 18","Counts/Channel 18","Micron Size 19","Counts/Channel 19","Micron Size 20","Counts/Channel 20","Micron Size 21","Counts/Channel 21","Micron Size 22","Counts/Channel 22","Micron Size 23","Counts/Channel 23","Micron Size 24","Counts/Channel 24","Micron Size 25","Counts/Channel 25","Micron Size 26","Counts/Channel 26","Micron Size 27","Counts/Channel 27","Micron Size 28","Counts/Channel 28","Micron Size 29","Counts/Channel 29","Micron Size 30","Counts/Channel 30","Micron Size 31","Counts/Channel 31"
"03/07/08","13:00:02",20106.000,"cc",28263.041,6.00,6,0.100,15978.000,0.200,2462.000,0.300,703.000,0.500,711.000,1.000,252.000,5.000,0
"03/07/08","13:00:08",20166.000,"cc",28192.262,6.00,6,0.100,15963.000,0.200,2422.000,0.300,758.000,0.500,789.000,1.000,234.000,5.000,0
"03/07/08","13:00:14",20420.000,"cc",28400.756,6.00,6,0.100,16000.000,0.200,2539.000,0.300,851.000,0.500,769.000,1.000,261.000,5.000,0
"03/07/08","13:00:20",20175.000,"cc",28288.496,6.00,6,0.100,15882.000,0.200,2480.000,0.300,814.000,0.500,741.000,1.000,258.000,5.000,0
"03/07/08","13:00:26",20233.000,"cc",28329.867,6.00,6,0.100,16100.000,0.200,2388.000,0.300,769.000,0.500,753.000,1.000,223.000,5.000,0
"03/07/08","13:00:32",19965.000,"cc",28346.119,6.00,6,0.100,16022.000,0.200,2280.000,0.300,758.000,0.500,676.000,1.000,229.000,5.000,0
"03/07/08","13:00:38",20045.000,"cc",28328.350,6.00,6,0.100,15818.000,0.200,2445.000,0.300,803.000,0.500,709.000,1.000,270.000,5.000,0
"03/07/08","13:00:44",20384.000,"cc",28279.998,6.00,6,0.100,16139.000,0.200,2474.000,0.300,800.000,0.500,731.000,1.000,240.000,5.000,0
"03/07/08","13:00:50",20533.000,"cc",28356.580,6.00,6,0.100,16189.000,0.200,2511.000,0.300,786.000,0.500,788.000,1.000,259.000,5.000,0
"03/07/08","13:00:56",20533.000,"cc",28388.385,6.00,6,0.100,16367.000,0.200,2496.000,0.300,754.000,0.500,691.000,1.000,225.000,5.000,0
"03/07/08","13:01:02",20565.000,"cc",28319.822,6.00,6,0.100,16326.000,0.200,2561.000,0.300,721.000,0.500,696.000,1.000,261.000,5.000,0
"03/07/08","13:01:08",20255.000,"cc",28254.984,6.00,6,0.100,15992.000,0.200,2523.000,0.300,776.000,0.500,744.000,1.000,220.000,5.000,0
"03/07/08","13:01:14",20512.000,"cc",28401.527,6.00,6,0.100,16292.000,0.200,2512.000,0.300,765.000,0.500,696.000,1.000,247.000,5.000,0
"03/07/08","13:01:20",20204.000,"cc",28190.809,6.00,6,0.100,16081.000,0.200,2435.000,0.300,766.000,0.500,691.000,1.000,231.000,5.000,0
"03/07/08","13:01:26",20396.000,"cc",28303.025,6.00,6,0.100,16180.000,0.200,2564.000,0.300,767.000,0.500,673.000,1.000,212.000,5.000,0
"03/07/08","13:01:32",20627.000,"cc",28341.824,6.00,6,0.100,16324.000,0.200,2538.000,0.300,761.000,0.500,739.000,1.000,265.000,5.000,0
"03/07/08","13:01:38",20468.000,"cc",28343.652,6.00,6,0.100,16296.000,0.200,2458.000,0.300,757.000,0.500,691.000,1.000,266.000,5.000,0
"03/07/08","13:01:44",20518.000,"cc",28323.238,6.00,6,0.100,16340.000,0.200,2397.000,0.300,779.000,0.500,767.000,1.000,235.000,5.000,0
"03/07/08","13:01:50",20503.000,"cc",28273.260,6.00,6,0.100,16281.000,0.200,2480.000,0.300,795.000,0.500,714.000,1.000,233.000,5.000,0
"03/07/08","13:01:56",20490.000,"cc",28298.457,6.00,6,0.100,16174.000,0.200,2487.000,0.300,807.000,0.500,760.000,1.000,262.000,5.000,0
"03/07/08","13:02:02",20636.000,"cc",28351.107,6.00,6,0.100,16291.000,0.200,2483.000,0.300,830.000,0.500,741.000,1.000,291.000,5.000,0
"03/07/08","13:02:08",20617.000,"cc",28247.686,6.00,6,0.100,16406.000,0.200,2436.000,0.300,825.000,0.500,698.000,1.000,252.000,5.000,0
"03/07/08","13:02:14",21006.000,"cc",28371.490,6.00,6,0.100,16590.000,0.200,2490.000,0.300,842.000,0.500,819.000,1.000,265.000,5.000,0
"03/07/08","13:02:20",20709.000,"cc",28391.758,6.00,6,0.100,16537.000,0.200,2534.000,0.300,738.000,0.500,677.000,1.000,223.000,5.000,0
"03/07/08","13:02:26",20253.000,"cc",28287.217,6.00,6,0.100,16163.000,0.200,2423.000,0.300,729.000,0.500,698.000,1.000,240.000,5.000,0
"03/07/08","13:02:32",20696.000,"cc",28276.182,6.00,6,0.100,16437.000,0.200,2536.000,0.300,754.000,0.500,700.000,1.000,269.000,5.000,0
"03/07/08","13:02:38",20562.000,"cc",28383.568,6.00,6,0.100,16419.000,0.200,2477.000,0.300,726.000,0.500,695.000,1.000,245.000,5.000,0
"03/07/08","13:02:44",21150.000,"cc",28326.449,6.00,6,0.100,16692.000,0.200,2641.000,0.300,795.000,0.500,768.000,1.000,254.000,5.000,0
"03/07/08","13:02:50",20696.000,"cc",28398.715,6.00,6,0.100,16534.000,0.200,2414.000,0.300,765.000,0.500,756.000,1.000,227.000,5.000,0
"03/07/08","13:02:56",20512.000,"cc",28255.654,6.00,6,0.100,16356.000,0.200,2456.000,0.300,732.000,0.500,737.000,1.000,231.000,5.000,0
"03/07/08","13:03:02",20833.000,"cc",28336.875,6.00,6,0.100,16507.000,0.200,2515.000,0.300,787.000,0.500,755.000,1.000,269.000,5.000,0
"03/07/08","13:03:08",21089.000,"cc",28281.348,6.00,6,0.100,16438.000,0.200,2655.000,0.300,848.000,0.500,863.000,1.000,285.000,5.000,0
"03/07/08","13:03:14",20773.000,"cc",28275.154,6.00,6,0.100,16382.000,0.200,2510.000,0.300,783.000,0.500,807.000,1.000,291.000,5.000,0
"03/07/08","13:03:20",20808.000,"cc",28334.100,6.00,6,0.100,16387.000,0.200,2472.000,0.300,834.000,0.500,836.000,1.000,279.000,5.000,0
"03/07/08","13:03:26",20456.000,"cc",28232.246,6.00,6,0.100,16080.000,0.200,2513.000,0.300,788.000,0.500,776.000,1.000,299.000,5.000,0
"03/07/08","13:03:32",20883.000,"cc",28342.908,6.00,6,0.100,16522.000,0.200,2531.000,0.300,784.000,0.500,794.000,1.000,252.000,5.000,0
"03/07/08","13:03:38",20603.000,"cc",28296.910,6.00,6,0.100,16297.000,0.200,2528.000,0.300,800.000,0.500,735.000,1.000,243.000,5.000,0
"03/07/08","13:03:44",20426.000,"cc",28430.205,6.00,6,0.100,16321.000,0.200,2449.000,0.300,748.000,0.500,663.000,1.000,245.000,5.000,0
"03/07/08","13:03:50",20819.000,"cc",28346.537,6.00,6,0.100,16529.000,0.200,2499.000,0.300,819.000,0.500,726.000,1.000,246.000,5.000,0
"03/07/08","13:03:56",20822.000,"cc",28287.574,6.00,6,0.100,16506.000,0.200,2492.000,0.300,823.000,0.500,751.000,1.000,250.000,5.000,0
"03/07/08","13:04:02",20746.000,"cc",28266.787,6.00,6,0.100,16372.000,0.200,2549.000,0.300,788.000,0.500,774.000,1.000,263.000,5.000,0
"03/07/08","13:04:08",21007.000,"cc",28249.164,6.00,6,0.100,16521.000,0.200,2529.000,0.300,885.000,0.500,781.000,1.000,291.000,5.000,0
"03/07/08","13:04:14",21184.000,"cc",28372.627,6.00,6,0.100,16812.000,0.200,2486.000,0.300,842.000,0.500,754.000,1.000,290.000,5.000,0
"03/07/08","13:04:20",20562.000,"cc",28344.861,6.00,6,0.100,16295.000,0.200,2474.000,0.300,805.000,0.500,720.000,1.000,268.000,5.000,0
"03/07/08","13:04:26",20587.000,"cc",28287.240,6.00,6,0.100,16214.000,0.200,2534.000,0.300,802.000,0.500,768.000,1.000,269.000,5.000,0
"03/07/08","13:04:32",20765.000,"cc",28375.859,6.00,6,0.100,16445.000,0.200,2500.000,0.300,812.000,0.500,728.000,1.000,280.000,5.000,0
"03/07/08","13:04:38",20394.000,"cc",28329.184,6.00,6,0.100,16145.000,0.200,2458.000,0.300,819.000,0.500,723.000,1.000,249.000,5.000,0
"03/07/08","13:04:44",20904.000,"cc",28275.691,6.00,6,0.100,16507.000,0.200,2545.000,0.300,808.000,0.500,775.000,1.000,269.000,5.000,0
"03/07/08","13:04:50",20679.000,"cc",28303.727,6.00,6,0.100,16302.000,0.200,2522.000,0.300,862.000,0.500,743.000,1.000,250.000,5.000,0
"03/07/08","13:04:56",20884.000,"cc",28355.840,6.00,6,0.100,16463.000,0.200,2489.000,0.300,864.000,0.500,785.000,1.000,283.000,5.000,0
"03/07/08","13:05:02",21191.000,"cc",28342.895,6.00,6,0.100,16686.000,0.200,2520.000,0.300,881.000,0.500,791.000,1.000,313.000,5.000,0
"03/07/08","13:05:08",20697.000,"cc",28227.383,6.00,6,0.100,16251.000,0.200,2557.000,0.300,842.000,0.500,775.000,1.000,272.000,5.000,0
"03/07/08","13:05:14",21022.000,"cc",28280.332,6.00,6,0.100,16571.000,0.200,2573.000,0.300,835.000,0.500,766.000,1.000,277.000,5.000,0
"03/07/08","13:05:20",20759.000,"cc",28306.549,6.00,6,0.100,16302.000,0.200,2547.000,0.300,838.000,0.500,760.000,1.000,312.000,5.000,0
"03/07/08","13:05:26",20818.000,"cc",28317.731,6.00,6,0.100,16595.000,0.200,2429.000,0.300,761.000,0.500,761.000,1.000,272.000,5.000,0
"03/07/08","13:05:32",20671.000,"cc",28413.682,6.00,6,0.100,16331.000,0.200,2533.000,0.300,752.000,0.500,792.000,1.000,263.000,5.000,0
"03/07/08","13:05:38",20646.000,"cc",28318.014,6.00,6,0.100,16192.000,0.200,2498.000,0.300,909.000,0.500,768.000,1.000,279.000,5.000,0
"03/07/08","13:05:44",20818.000,"cc",28382.098,6.00,6,0.100,16522.000,0.200,2511.000,0.300,805.000,0.500,735.000,1.000,245.000,5.000,0
"03/07/08","13:05:50",20945.000,"cc",28172.529,6.00,6,0.100,16472.000,0.200,2571.000,0.300,853.000,0.500,784.000,1.000,265.000,5.000,0
"03/07/08","13:05:56",21139.000,"cc",28315.932,6.00,6,0.100,16690.000,0.200,2539.000,0.300,856.000,0.500,783.000,1.000,271.000,5.000,0
"03/07/08","13:06:02",20900.000,"cc",28306.641,6.00,6,0.100,16344.000,0.200,2511.000,0.300,936.000,0.500,808.000,1.000,301.000,5.000,0
"03/07/08","13:06:08",20937.000,"cc",28250.535,6.00,6,0.100,16464.000,0.200,2534.000,0.300,798.000,0.500,863.000,1.000,278.000,5.000,0
"03/07/08","13:06:14",21435.000,"cc",28306.354,6.00,6,0.100,16837.000,0.200,2544.000,0.300,877.000,0.500,870.000,1.000,307.000,5.000,0
"03/07/08","13:06:20",21199.000,"cc",28319.820,6.00,6,0.100,16647.000,0.200,2568.000,0.300,857.000,0.500,815.000,1.000,312.000,5.000,0
"03/07/08","13:06:26",21107.000,"cc",28410.869,6.00,6,0.100,16729.000,0.200,2561.000,0.300,800.000,0.500,738.000,1.000,279.000,5.000,0
"03/07/08","13:06:32",20951.000,"cc",28385.203,6.00,6,0.100,16604.000,0.200,2511.000,0.300,791.000,0.500,776.000,1.000,269.000,5.000,0
"03/07/08","13:06:38",20784.000,"cc",28295.404,6.00,6,0.100,16535.000,0.200,2397.000,0.300,825.000,0.500,749.000,1.000,278.000,5.000,0
"03/07/08","13:06:44",21262.000,"cc",28150.463,6.00,6,0.100,16732.000,0.200,2542.000,0.300,893.000,0.500,830.000,1.000,265.000,5.000,0
"03/07/08","13:06:50",21269.000,"cc",28336.836,6.00,6,0.100,16708.000,0.200,2593.000,0.300,855.000,0.500,820.000,1.000,293.000,5.000,0
"03/07/08","13:06:56",21212.000,"cc",28438.906,6.00,6,0.100,16613.000,0.200,2637.000,0.300,854.000,0.500,828.000,1.000,280.000,5.000,0
"03/07/08","13:07:02",21171.000,"cc",28217.096,6.00,6,0.100,16673.000,0.200,2564.000,0.300,849.000,0.500,783.000,1.000,302.000,5.000,0
"03/07/08","13:07:08",21196.000,"cc",28369.375,6.00,6,0.100,16737.000,0.200,2515.000,0.300,839.000,0.500,814.000,1.000,291.000,5.000,0
"03/07/08","13:07:14",20852.000,"cc",28324.422,6.00,6,0.100,16467.000,0.200,2493.000,0.300,842.000,0.500,766.000,1.000,284.000,5.000,0
"03/07/08","13:07:20",21159.000,"cc",28301.725,6.00,6,0.100,16730.000,0.200,2455.000,0.300,836.000,0.500,873.000,1.000,265.000,5.000,0
"03/07/08","13:07:26",21231.000,"cc",28311.025,6.00,6,0.100,16684.000,0.200,2528.000,0.300,846.000,0.500,859.000,1.000,314.000,5.000,0
"03/07/08","13:07:32",21359.000,"cc",28317.691,6.00,6,0.100,16768.000,0.200,2597.000,0.300,901.000,0.500,793.000,1.000,300.000,5.000,0
"03/07/08","13:07:38",21216.000,"cc",28366.225,6.00,6,0.100,16662.000,0.200,2553.000,0.300,871.000,0.500,847.000,1.000,283.000,5.000,0
"03/07/08","13:07:44",21355.000,"cc",28374.566,6.00,6,0.100,16936.000,0.200,2423.000,0.300,866.000,0.500,799.000,1.000,331.000,5.000,0
"03/07/08","13:07:50",21426.000,"cc",28265.523,6.00,6,0.100,16903.000,0.200,2625.000,0.300,832.000,0.500,757.000,1.000,309.000,5.000,0
"03/07/08","13:07:56",21203.000,"cc",28304.023,6.00,6,0.100,16709.000,0.200,2447.000,0.300,923.000,0.500,870.000,1.000,254.000,5.000,0
"03/07/08","13:08:02",21458.000,"cc",28288.373,6.00,6,0.100,17067.000,0.200,2451.000,0.300,804.000,0.500,830.000,1.000,306.000,5.000,0
"03/07/08","13:08:08",21889.000,"cc",28361.283,6.00,6,0.100,17133.000,0.200,2623.000,0.300,909.000,0.500,917.000,1.000,307.000,5.000,0
"03/07/08","13:08:14",21966.000,"cc",28346.891,6.00,6,0.100,17274.000,0.200,2544.000,0.300,958.000,0.500,882.000,1.000,308.000,5.000,0
"03/07/08","13:08:20",21745.000,"cc",28293.690,6.00,6,0.100,17115.000,0.200,2537.000,0.300,881.000,0.500,929.000,1.000,283.000,5.000,0
"03/07/08","13:08:26",21747.000,"cc",28297.039,6.00,6,0.100,17163.000,0.200,2553.000,0.300,854.000,0.500,870.000,1.000,307.000,5.000,0
"03/07/08","13:08:32",21739.000,"cc",28318.287,6.00,6,0.100,17148.000,0.200,2573.000,0.300,833.000,0.500,863.000,1.000,322.000,5.000,0
"03/07/08","13:08:38",22028.000,"cc",28286.959,6.00,6,0.100,17198.000,0.200,2718.000,0.300,860.000,0.500,907.000,1.000,345.000,5.000,0
"03/07/08","13:08:44",22047.000,"cc",28346.328,6.00,6,0.100,17349.000,0.200,2603.000,0.300,915.000,0.500,868.000,1.000,312.000,5.000,0
"03/07/08","13:08:50",21762.000,"cc",28311.002,6.00,6,0.100,17012.000,0.200,2647.000,0.300,896.000,0.500,887.000,1.000,320.000,5.000,0
"03/07/08","13:08:56",21557.000,"cc",28308.467,6.00,6,0.100,17036.000,0.200,2557.000,0.300,817.000,0.500,824.000,1.000,323.000,5.000,0
"03/07/08","13:09:02",22101.000,"cc",28280.229,6.00,6,0.100,17332.000,0.200,2649.000,0.300,942.000,0.500,861.000,1.000,317.000,5.000,0
"03/07/08","13:09:08",21854.000,"cc",28225.955,6.00,6,0.100,17080.000,0.200,2620.000,0.300,917.000,0.500,908.000,1.000,329.000,5.000,0
"03/07/08","13:09:14",21665.000,"cc",28279.955,6.00,6,0.100,17040.000,0.200,2604.000,0.300,910.000,0.500,816.000,1.000,295.000,5.000,0
"03/07/08","13:09:20",21753.000,"cc",28374.559,6.00,6,0.100,17077.000,0.200,2640.000,0.300,859.000,0.500,864.000,1.000,313.000,5.000,0
"03/07/08","13:09:26",21954.000,"cc",28350.160,6.00,6,0.100,17272.000,0.200,2628.000,0.300,883.000,0.500,860.000,1.000,311.000,5.000,0
"03/07/08","13:09:32",21867.000,"cc",28308.824,6.00,6,0.100,17279.000,0.200,2609.000,0.300,878.000,0.500,822.000,1.000,279.000,5.000,0
"03/07/08","13:09:38",22292.000,"cc",28313.139,6.00,6,0.100,17559.000,0.200,2591.000,0.300,943.000,0.500,883.000,1.000,316.000,5.000,0
"03/07/08","13:09:44",21827.000,"cc",28294.199,6.00,6,0.100,17183.000,0.200,2569.000,0.300,844.000,0.500,898.000,1.000,333.000,5.000,0
"03/07/08","13:09:50",22161.000,"cc",28292.623,6.00,6,0.100,17348.000,0.200,2661.000,0.300,962.000,0.500,860.000,1.000,330.000,5.000,0
"03/07/08","13:09:56",21721.000,"cc",28373.627,6.00,6,0.100,17137.000,0.200,2570.000,0.300,853.000,0.500,860.000,1.000,301.000,5.000,0
"03/07/08","13:10:02",22060.000,"cc",28326.248,6.00,6,0.100,17430.000,0.200,2601.000,0.300,888.000,0.500,837.000,1.000,304.000,5.000,0
"03/07/08","13:10:08",21796.000,"cc",28268.246,6.00,6,0.100,17134.000,0.200,2666.000,0.300,880.000,0.500,795.000,1.000,321.000,5.000,0
"03/07/08","13:10:14",21921.000,"cc",28326.797,6.00,6,0.100,17396.000,0.200,2536.000,0.300,867.000,0.500,776.000,1.000,346.000,5.000,0
"03/07/08","13:10:20",22006.000,"cc",28365.889,6.00,6,0.100,17230.000,0.200,2672.000,0.300,857.000,0.500,908.000,1.000,339.000,5.000,0
"03/07/08","13:10:26",22164.000,"cc",28264.945,6.00,6,0.100,17318.000,0.200,2643.000,0.300,964.000,0.500,894.000,1.000,345.000,5.000,0
"03/07/08","13:10:32",22342.000,"cc",28283.135,6.00,6,0.100,17527.000,0.200,2680.000,0.300,912.000,0.500,886.000,1.000,337.000,5.000,0
"03/07/08","13:10:38",22089.000,"cc",28238.082,6.00,6,0.100,17719.000,0.200,2563.000,0.300,771.000,0.500,782.000,1.000,254.000,5.000,0
"03/07/08","13:10:44",22113.000,"cc",28442.262,6.00,6,0.100,17537.000,0.200,2600.000,0.300,875.000,0.500,808.000,1.000,293.000,5.000,0
"03/07/08","13:10:50",22360.000,"cc",28312.965,6.00,6,0.100,17630.000,0.200,2686.000,0.300,880.000,0.500,857.000,1.000,307.000,5.000,0
"03/07/08","13:10:56",22118.000,"cc",28348.756,6.00,6,0.100,17391.000,0.200,2752.000,0.300,847.000,0.500,826.000,1.000,302.000,5.000,0
"03/07/08","13:11:02",22006.000,"cc",28401.023,6.00,6,0.100,17380.000,0.200,2536.000,0.300,919.000,0.500,844.000,1.000,327.000,5.000,0
"03/07/08","13:11:08",21981.000,"cc",28178.369,6.00,6,0.100,17553.000,0.200,2559.000,0.300,824.000,0.500,776.000,1.000,269.000,5.000,0
"03/07/08","13:11:14",21914.000,"cc",28208.453,6.00,6,0.100,17353.000,0.200,2589.000,0.300,899.000,0.500,795.000,1.000,278.000,5.000,0
"03/07/08","13:11:20",22047.000,"cc",28337.369,6.00,6,0.100,17301.000,0.200,2662.000,0.300,892.000,0.500,894.000,1.000,298.000,5.000,0
"03/07/08","13:11:26",21594.000,"cc",28377.633,6.00,6,0.100,17061.000,0.200,2521.000,0.300,875.000,0.500,819.000,1.000,318.000,5.000,0
"03/07/08","13:11:32",22137.000,"cc",28325.215,6.00,6,0.100,17434.000,0.200,2635.000,0.300,911.000,0.500,814.000,1.000,343.000,5.000,0
"03/07/08","13:11:38",22405.000,"cc",28320.377,6.00,6,0.100,17665.000,0.200,2645.000,0.300,905.000,0.500,875.000,1.000,315.000,5.000,0
"03/07/08","13:11:44",22279.000,"cc",28344.877,6.00,6,0.100,17518.000,0.200,2546.000,0.300,922.000,0.500,954.000,1.000,339.000,5.000,0
"03/07/08","13:11:50",22130.000,"cc",28314.012,6.00,6,0.100,17323.000,0.200,2645.000,0.300,898.000,0.500,915.000,1.000,349.000,5.000,0
"03/07/08","13:11:56",22629.000,"cc",28438.607,6.00,6,0.100,17687.000,0.200,2708.000,0.300,980.000,0.500,891.000,1.000,363.000,5.000,0
"03/07/08","13:12:02",22160.000,"cc",28166.971,6.00,6,0.100,17362.000,0.200,2647.000,0.300,926.000,0.500,904.000,1.000,321.000,5.000,0
"03/07/08","13:12:08",22261.000,"cc",28177.363,6.00,6,0.100,17426.000,0.200,2734.000,0.300,957.000,0.500,861.000,1.000,283.000,5.000,0
"03/07/08","13:12:14",22937.000,"cc",28337.412,6.00,6,0.100,17883.000,0.200,2739.000,0.300,1022.000,0.500,937.000,1.000,356.000,5.000,0
"03/07/08","13:12:20",22472.000,"cc",28326.998,6.00,6,0.100,17656.000,0.200,2648.000,0.300,953.000,0.500,888.000,1.000,327.000,5.000,0
"03/07/08","13:12:26",22393.000,"cc",28448.131,6.00,6,0.100,17650.000,0.200,2614.000,0.300,894.000,0.500,884.000,1.000,351.000,5.000,0
"03/07/08","13:12:32",22506.000,"cc",28365.127,6.00,6,0.100,17900.000,0.200,2607.000,0.300,791.000,0.500,837.000,1.000,371.000,5.000,0
"03/07/08","13:12:38",22515.000,"cc",28328.418,6.00,6,0.100,17631.000,0.200,2622.000,0.300,959.000,0.500,958.000,1.000,345.000,5.000,0
"03/07/08","13:12:44",22799.000,"cc",28237.484,6.00,6,0.100,17672.000,0.200,2715.000,0.300,1049.000,0.500,1006.000,1.000,357.000,5.000,0
"03/07/08","13:12:50",22833.000,"cc",28227.807,6.00,6,0.100,17708.000,0.200,2705.000,0.300,1012.000,0.500,1032.000,1.000,376.000,5.000,0
"03/07/08","13:12:56",23034.000,"cc",28345.967,6.00,6,0.100,17914.000,0.200,2811.000,0.300,981.000,0.500,956.000,1.000,372.000,5.000,0
"03/07/08","13:13:02",22917.000,"cc",28464.590,6.00,6,0.100,17877.000,0.200,2711.000,0.300,1003.000,0.500,960.000,1.000,366.000,5.000,0
"03/07/08","13:13:08",22391.000,"cc",28173.932,6.00,6,0.100,17645.000,0.200,2549.000,0.300,935.000,0.500,914.000,1.000,348.000,5.000,0
"03/07/08","13:13:14",23040.000,"cc",28268.445,6.00,6,0.100,17973.000,0.200,2733.000,0.300,1024.000,0.500,959.000,1.000,351.000,5.000,0
"03/07/08","13:13:20",22619.000,"cc",28311.176,6.00,6,0.100,17631.000,0.200,2709.000,0.300,932.000,0.500,1007.000,1.000,340.000,5.000,0
"03/07/08","13:13:26",23009.000,"cc",28352.436,6.00,6,0.100,18054.000,0.200,2687.000,0.300,921.000,0.500,967.000,1.000,380.000,5.000,0
"03/07/08","13:13:32",22447.000,"cc",28336.803,6.00,6,0.100,17689.000,0.200,2688.000,0.300,917.000,0.500,848.000,1.000,305.000,5.000,0
"03/07/08","13:13:38",22808.000,"cc",28321.002,6.00,6,0.100,17808.000,0.200,2701.000,0.300,973.000,0.500,966.000,1.000,360.000,5.000,0
"03/07/08","13:13:44",23272.000,"cc",28238.990,6.00,6,0.100,17977.000,0.200,2822.000,0.300,1035.000,0.500,1052.000,1.000,386.000,5.000,0
"03/07/08","13:13:50",23020.000,"cc",28411.615,6.00,6,0.100,17775.000,0.200,2710.000,0.300,1091.000,0.500,1006.000,1.000,438.000,5.000,0
"03/07/08","13:13:56",23282.000,"cc",28363.070,6.00,6,0.100,18005.000,0.200,2797.000,0.300,1057.000,0.500,1039.000,1.000,384.000,5.000,0
"03/07/08","13:14:02",22936.000,"cc",28325.447,6.00,6,0.100,17840.000,0.200,2727.000,0.300,997.000,0.500,984.000,1.000,388.000,5.000,0
"03/07/08","13:14:08",23032.000,"cc",28208.250,6.00,6,0.100,17863.000,0.200,2694.000,0.300,1045.000,0.500,1042.000,1.000,388.000,5.000,0
"03/07/08","13:14:14",23230.000,"cc",28336.440,6.00,6,0.100,18081.000,0.200,2851.000,0.300,954.000,0.500,981.000,1.000,363.000,5.000,0
"03/07/08","13:14:20",23025.000,"cc",28229.619,6.00,6,0.100,18051.000,0.200,2640.000,0.300,1004.000,0.500,981.000,1.000,349.000,5.000,0
"03/07/08","13:14:26",23484.000,"cc",28429.258,6.00,6,0.100,18217.000,0.200,2814.000,0.300,1077.000,0.500,1003.000,1.000,373.000,5.000,0
"03/07/08","13:14:32",23153.000,"cc",28342.315,6.00,6,0.100,17978.000,0.200,2736.000,0.300,1005.000,0.500,1077.000,1.000,357.000,5.000,0
"03/07/08","13:14:38",22969.000,"cc",28408.522,6.00,6,0.100,17860.000,0.200,2800.000,0.300,944.000,0.500,978.000,1.000,387.000,5.000,0
"03/07/08","13:14:44",23063.000,"cc",28284.766,6.00,6,0.100,18100.000,0.200,2682.000,0.300,928.000,0.500,969.000,1.000,384.000,5.000,0
"03/07/08","13:14:50",23226.000,"cc",28241.697,6.00,6,0.100,18243.000,0.200,2612.000,0.300,1009.000,0.500,970.000,1.000,392.000,5.000,0
"03/07/08","13:14:56",23232.000,"cc",28219.852,6.00,6,0.100,18199.000,0.200,2721.000,0.300,992.000,0.500,961.000,1.000,359.000,5.000,0
"03/07/08","13:15:02",23242.000,"cc",28441.471,6.00,6,0.100,18003.000,0.200,2799.000,0.300,985.000,0.500,1056.000,1.000,399.000,5.000,0
"03/07/08","13:15:08",23250.000,"cc",28379.828,6.00,6,0.100,18087.000,0.200,2705.000,0.300,1065.000,0.500,1048.000,1.000,345.000,5.000,0
"03/07/08","13:15:14",23293.000,"cc",28307.002,6.00,6,0.100,18087.000,0.200,2747.000,0.300,1048.000,0.500,999.000,1.000,412.000,5.000,0
"03/07/08","13:15:20",23644.000,"cc",28266.422,6.00,6,0.100,18269.000,0.200,2857.000,0.300,1060.000,0.500,1051.000,1.000,407.000,5.000,0
"03/07/08","13:15:26",23827.000,"cc",28294.557,6.00,6,0.100,18610.000,0.200,2758.000,0.300,1021.000,0.500,1047.000,1.000,391.000,5.000,0
"03/07/08","13:15:32",23165.000,"cc",28290.973,6.00,6,0.100,17928.000,0.200,2723.000,0.300,1064.000,0.500,1043.000,1.000,407.000,5.000,0
"03/07/08","13:15:38",23514.000,"cc",28315.924,6.00,6,0.100,18354.000,0.200,2682.000,0.300,1058.000,0.500,1031.000,1.000,389.000,5.000,0
"03/07/08","13:15:44",23384.000,"cc",28335.182,6.00,6,0.100,18103.000,0.200,2743.000,0.300,1057.000,0.500,1110.000,1.000,371.000,5.000,0
"03/07/08","13:15:50",23185.000,"cc",28407.781,6.00,6,0.100,17998.000,0.200,2749.000,0.300,1030.000,0.500,1052.000,1.000,356.000,5.000,0
"03/07/08","13:15:56",23351.000,"cc",28253.619,6.00,6,0.100,18012.000,0.200,2831.000,0.300,1023.000,0.500,1090.000,1.000,395.000,5.000,0
"03/07/08","13:16:02",24139.000,"cc",28268.398,6.00,6,0.100,18609.000,0.200,2917.000,0.300,1022.000,0.500,1166.000,1.000,425.000,5.000,0
"03/07/08","13:16:08",23510.000,"cc",28359.535,6.00,6,0.100,18172.000,0.200,2865.000,0.300,1075.000,0.500,1025.000,1.000,373.000,5.000,0
"03/07/08","13:16:14",23850.000,"cc",28374.957,6.00,6,0.100,18437.000,0.200,2781.000,0.300,1099.000,0.500,1076.000,1.000,457.000,5.000,0
"03/07/08","13:16:20",23583.000,"cc",28260.582,6.00,6,0.100,18207.000,0.200,2778.000,0.300,1055.000,0.500,1125.000,1.000,418.000,5.000,0
"03/07/08","13:16:26",23746.000,"cc",28296.861,6.00,6,0.100,18402.000,0.200,2793.000,0.300,1056.000,0.500,1118.000,1.000,377.000,5.000,0
"03/07/08","13:16:32",23634.000,"cc",28253.842,6.00,6,0.100,18460.000,0.200,2754.000,0.300,1030.000,0.500,1024.000,1.000,366.000,5.000,0